When you browse on this site, cookies collect data to enhance your experience and personalize the content and advertising you see.
Visit our Privacy Policy to learn more. By continuing to use the site, you agree to this use of cookies and data.
  • In Hungary
  • List of Countries
  • For 7 days
  • Water Temperature
  • Satellite Maps
  • Weather Map
  • News
  • Weather Widgets
  • user-avatar
    Login

    Hourly Weather Dinard

    Today, 24 February, Sunday

    Time Temperature Precipitation Wind Pressure Humidity
    00:00 +10°C° 0 mm 2 mps 773 mmHg 86%
    01:00 +9°C° 0 mm 2 mps 773 mmHg 86%
    02:00 +9°C° 0 mm 2 mps 773 mmHg 86%
    03:00 +8°C° 0 mm 2 mps 772 mmHg 85%
    04:00 +8°C° 0 mm 2 mps 772 mmHg 84%
    05:00 +7°C° 0 mm 2 mps 772 mmHg 83%
    06:00 +7°C° 0 mm 2 mps 772 mmHg 83%
    07:00 +7°C° 0 mm 2 mps 773 mmHg 79%
    08:00 +8°C° 0 mm 2 mps 773 mmHg 76%
    09:00 +9°C° 0 mm 2 mps 773 mmHg 73%
    10:00 +12°C° 0 mm 2 mps 773 mmHg 66%
    11:00 +13°C° 0 mm 2 mps 773 mmHg 59%
    12:00 +15°C° 0 mm 2 mps 773 mmHg 52%
    13:00 +15°C° 0 mm 2 mps 773 mmHg 51%
    14:00 +16°C° 0 mm 2 mps 773 mmHg 51%
    15:00 +16°C° 0 mm 1 mps 773 mmHg 50%
    16:00 +15°C° 0 mm 1 mps 773 mmHg 55%
    17:00 +13°C° 0 mm 1 mps 773 mmHg 61%
    18:00 +11°C° 0 mm 1 mps 773 mmHg 66%
    19:00 +10°C° 0 mm 2 mps 774 mmHg 69%
    20:00 +9°C° 0 mm 2 mps 774 mmHg 72%
    21:00 +9°C° 0 mm 2 mps 774 mmHg 74%
    22:00 +8°C° 0 mm 2 mps 774 mmHg 74%
    23:00 +7°C° 0 mm 3 mps 774 mmHg 75%

    Tomorrow, 25 February, Monday

    Time Temperature Precipitation Wind Pressure Humidity
    00:00 +7°C° 0 mm 3 mps 774 mmHg 75%
    01:00 +7°C° 0 mm 3 mps 774 mmHg 74%
    02:00 +5°C° 0 mm 3 mps 774 mmHg 73%
    03:00 +5°C° 0 mm 3 mps 774 mmHg 72%
    04:00 +5°C° 0 mm 3 mps 774 mmHg 74%
    05:00 +5°C° 0 mm 2 mps 774 mmHg 76%
    06:00 +5°C° 0 mm 2 mps 774 mmHg 79%
    07:00 +5°C° 0 mm 3 mps 774 mmHg 78%
    08:00 +7°C° 0 mm 3 mps 774 mmHg 76%
    09:00 +8°C° 0 mm 3 mps 774 mmHg 75%
    10:00 +10°C° 0 mm 3 mps 774 mmHg 73%
    11:00 +12°C° 0 mm 3 mps 774 mmHg 71%
    12:00 +14°C° 0 mm 3 mps 774 mmHg 69%
    13:00 +14°C° 0 mm 3 mps 774 mmHg 68%
    14:00 +16°C° 0 mm 3 mps 773 mmHg 67%
    15:00 +17°C° 0 mm 3 mps 773 mmHg 65%
    16:00 +15°C° 0 mm 2 mps 773 mmHg 71%
    17:00 +13°C° 0 mm 2 mps 773 mmHg 77%
    18:00 +12°C° 0 mm 2 mps 773 mmHg 83%
    19:00 +10°C° 0 mm 2 mps 773 mmHg 83%
    20:00 +9°C° 0 mm 2 mps 773 mmHg 84%
    21:00 +9°C° 0 mm 3 mps 773 mmHg 84%
    22:00 +8°C° 0 mm 3 mps 773 mmHg 84%
    23:00 +8°C° 0 mm 3 mps 773 mmHg 84%

    Day after tomorrow, 26 February, Tuesday

    Time Temperature Precipitation Wind Pressure Humidity
    00:00 +6°C° 0 mm 4 mps 773 mmHg 83%
    01:00 +6°C° 0 mm 4 mps 772 mmHg 83%
    02:00 +6°C° 0 mm 4 mps 772 mmHg 82%
    03:00 +5°C° 0 mm 4 mps 772 mmHg 81%
    04:00 +5°C° 0 mm 4 mps 772 mmHg 83%
    05:00 +5°C° 0 mm 4 mps 772 mmHg 85%
    06:00 +5°C° 0 mm 4 mps 771 mmHg 86%
    07:00 +6°C° 0 mm 4 mps 771 mmHg 83%
    08:00 +7°C° 0 mm 4 mps 771 mmHg 81%
    09:00 +8°C° 0 mm 4 mps 771 mmHg 78%
    10:00 +10°C° 0 mm 4 mps 771 mmHg 75%
    11:00 +12°C° 0 mm 4 mps 771 mmHg 72%
    12:00 +14°C° 0 mm 4 mps 771 mmHg 69%
    13:00 +14°C° 0 mm 4 mps 770 mmHg 70%
    14:00 +15°C° 0 mm 4 mps 770 mmHg 70%
    15:00 +15°C° 0 mm 4 mps 769 mmHg 71%
    16:00 +14°C° 0 mm 4 mps 769 mmHg 77%
    17:00 +13°C° 0 mm 4 mps 769 mmHg 83%
    18:00 +12°C° 0 mm 3 mps 769 mmHg 89%
    19:00 +11°C° 0 mm 4 mps 769 mmHg 90%
    20:00 +11°C° 0 mm 4 mps 769 mmHg 91%
    21:00 +10°C° 0 mm 4 mps 769 mmHg 93%
    22:00 +10°C° 0 mm 4 mps 769 mmHg 93%
    23:00 +8°C° 0 mm 4 mps 769 mmHg 93%

    27 February, Wednesday

    Time Temperature Precipitation Wind Pressure Humidity
    00:00 +8°C° 0 mm 4 mps 769 mmHg 93%
    01:00 +8°C° 0 mm 4 mps 769 mmHg 92%
    02:00 +7°C° 0 mm 4 mps 768 mmHg 91%
    03:00 +7°C° 0 mm 4 mps 768 mmHg 90%
    04:00 +7°C° 0 mm 4 mps 768 mmHg 89%
    05:00 +7°C° 0 mm 4 mps 768 mmHg 88%
    06:00 +7°C° 0 mm 5 mps 768 mmHg 87%
    07:00 +8°C° 0 mm 5 mps 768 mmHg 83%
    08:00 +9°C° 0 mm 5 mps 768 mmHg 78%
    09:00 +10°C° 0 mm 6 mps 768 mmHg 74%
    10:00 +13°C° 0 mm 5 mps 767 mmHg 71%
    11:00 +14°C° 0 mm 5 mps 767 mmHg 68%
    12:00 +17°C° 0 mm 4 mps 767 mmHg 65%
    13:00 +17°C° 0 mm 4 mps 767 mmHg 65%
    14:00 +18°C° 0 mm 3 mps 766 mmHg 65%
    15:00 +19°C° 0 mm 3 mps 766 mmHg 65%
    16:00 +17°C° 0 mm 3 mps 766 mmHg 71%
    17:00 +14°C° 0 mm 3 mps 766 mmHg 77%
    18:00 +14°C° 0 mm 2 mps 766 mmHg 83%
    19:00 +13°C° 0 mm 2 mps 766 mmHg 84%
    20:00 +12°C° 0 mm 2 mps 766 mmHg 84%
    21:00 +10°C° 0 mm 2 mps 766 mmHg 84%
    22:00 +10°C° 0 mm 2 mps 766 mmHg 85%
    23:00 +10°C° 0 mm 2 mps 766 mmHg 85%

    28 February, Thursday

    Time Temperature Precipitation Wind Pressure Humidity
    00:00 +9°C° 0 mm 2 mps 765 mmHg 85%
    01:00 +9°C° 0 mm 2 mps 765 mmHg 86%
    02:00 +9°C° 0 mm 2 mps 765 mmHg 86%
    03:00 +9°C° 0 mm 1 mps 765 mmHg 87%
    04:00 +8°C° 0 mm 2 mps 765 mmHg 88%
    05:00 +8°C° 0 mm 2 mps 765 mmHg 90%
    06:00 +8°C° 0 mm 3 mps 765 mmHg 92%
    07:00 +8°C° 0 mm 2 mps 765 mmHg 90%
    08:00 +9°C° 0 mm 2 mps 765 mmHg 89%
    09:00 +10°C° 0 mm 2 mps 765 mmHg 87%
    10:00 +12°C° 0 mm 2 mps 765 mmHg 85%
    11:00 +13°C° 0 mm 2 mps 765 mmHg 83%
    12:00 +14°C° 0 mm 2 mps 765 mmHg 81%
    13:00 +14°C° 0 mm 2 mps 765 mmHg 81%
    14:00 +14°C° 0 mm 2 mps 765 mmHg 81%
    15:00 +14°C° 0 mm 1 mps 765 mmHg 81%
    16:00 +13°C° 0 mm 2 mps 765 mmHg 85%
    17:00 +12°C° 0 mm 2 mps 766 mmHg 89%
    18:00 +10°C° 0 mm 3 mps 766 mmHg 92%
    19:00 +10°C° 0 mm 3 mps 766 mmHg 93%
    20:00 +10°C° 0 mm 3 mps 767 mmHg 94%
    21:00 +10°C° 0 mm 4 mps 767 mmHg 94%
    22:00 +8°C° 0 mm 4 mps 767 mmHg 93%
    23:00 +9°C° 0 mm 3 mps 767 mmHg 93%

    1 March, Friday

    Time Temperature Precipitation Wind Pressure Humidity
    00:00 +9°C° 0 mm 3 mps 768 mmHg 92%
    01:00 +9°C° 0 mm 3 mps 768 mmHg 92%
    02:00 +9°C° 0 mm 3 mps 768 mmHg 93%
    03:00 +9°C° 0 mm 3 mps 768 mmHg 93%
    04:00 +9°C° 0 mm 3 mps 768 mmHg 94%
    05:00 +9°C° 0 mm 2 mps 768 mmHg 94%
    06:00 +8°C° 0 mm 2 mps 767 mmHg 94%
    07:00 +9°C° 0 mm 2 mps 768 mmHg 92%
    08:00 +12°C° 0 mm 2 mps 768 mmHg 90%
    09:00 +13°C° 0 mm 2 mps 768 mmHg 88%
    10:00 +13°C° 0 mm 2 mps 768 mmHg 83%
    11:00 +14°C° 0 mm 2 mps 768 mmHg 79%
    12:00 +15°C° 0 mm 2 mps 768 mmHg 75%
    13:00 +15°C° 0 mm 2 mps 767 mmHg 75%
    14:00 +15°C° 0 mm 2 mps 767 mmHg 74%
    15:00 +16°C° 0 mm 2 mps 767 mmHg 74%
    16:00 +14°C° 0 mm 2 mps 767 mmHg 79%
    17:00 +12°C° 0 mm 2 mps 766 mmHg 85%
    18:00 +10°C° 0 mm 2 mps 766 mmHg 91%
    19:00 +11°C° 0 mm 1 mps 767 mmHg 90%
    20:00 +10°C° 0 mm 1 mps 767 mmHg 89%
    21:00 +9°C° 0 mm 0 mps 767 mmHg 88%
    22:00 +10°C° 0 mm 1 mps 767 mmHg 88%
    23:00 +10°C° 0 mm 1 mps 767 mmHg 88%
    Show more